| time (UTC) | temp F | wind direction | speed MPH | gust MPH | rain 1hr in | rain 24hr in | rain mn in | humidity % | barometer mb |
| 20260901205209 | 87 | 310 | 0.0 | 3.0 | 0.00 | 0.00 | 0.00 | 70 | 1015.0 |
| 20260901204710 | 86 | 155 | 1.0 | 4.0 | 0.00 | 0.00 | 0.00 | 69 | 1015.0 |
| 20260901204210 | 86 | 193 | 2.0 | 4.0 | 0.00 | 0.00 | 0.00 | 70 | 1015.0 |
| 20260901203710 | 86 | 94 | 3.0 | 3.0 | 0.00 | 0.00 | 0.00 | 69 | 1015.0 |
| 20260901203210 | 85 | 197 | 3.0 | 7.0 | 0.00 | 0.00 | 0.00 | 69 | 1015.0 |
| 20260901202709 | 85 | 323 | 3.0 | 6.0 | 0.00 | 0.00 | 0.00 | 69 | 1015.0 |
| 20260901202209 | 85 | 210 | 2.0 | 5.0 | 0.00 | 0.00 | 0.00 | 69 | 1015.0 |
| 20260901201709 | 85 | 178 | 5.0 | 5.0 | 0.00 | 0.00 | 0.00 | 69 | 1015.0 |
| 20260901201209 | 85 | 14 | 2.0 | 6.0 | 0.00 | 0.00 | 0.00 | 70 | 1015.0 |
| 20260901200710 | 85 | 321 | 4.0 | 4.0 | 0.00 | 0.00 | 0.00 | 71 | 1016.0 |
| 20260901200211 | 84 | 202 | 1.0 | 4.0 | 0.00 | 0.00 | 0.00 | 71 | 1015.0 |
| 20260901195709 | 84 | 172 | 3.0 | 5.0 | 0.00 | 0.00 | 0.00 | 71 | 1015.0 |
| 20260901195210 | 83 | 124 | 2.0 | 4.0 | 0.00 | 0.00 | 0.00 | 72 | 1015.0 |
| 20260901194710 | 83 | 155 | 0.0 | 5.0 | 0.00 | 0.00 | 0.00 | 71 | 1015.0 |
| 20260901194210 | 83 | 126 | 5.0 | 5.0 | 0.00 | 0.00 | 0.00 | 71 | 1015.0 |
| 20260901193709 | 84 | 165 | 6.0 | 6.0 | 0.00 | 0.00 | 0.00 | 71 | 1015.0 |
| 20260901193210 | 84 | 190 | 0.0 | 6.0 | 0.00 | 0.00 | 0.00 | 71 | 1015.0 |
| 20260901192709 | 84 | 161 | 3.0 | 4.0 | 0.00 | 0.00 | 0.00 | 72 | 1015.0 |
| 20260901192209 | 84 | 179 | 2.0 | 4.0 | 0.00 | 0.00 | 0.00 | 71 | 1015.0 |
| 20260901191710 | 85 | 223 | 3.0 | 4.0 | 0.00 | 0.00 | 0.00 | 69 | 1015.0 |
| 20260901191210 | 86 | 243 | 2.0 | 2.0 | 0.00 | 0.00 | 0.00 | 67 | 1015.0 |
| 20260901190710 | 87 | 143 | 3.0 | 5.0 | 0.00 | 0.00 | 0.00 | 65 | 1015.0 |
| 20260901190210 | 88 | 155 | 2.0 | 2.0 | 0.00 | 0.00 | 0.00 | 64 | 1015.0 |
| 20260901185710 | 89 | 103 | 3.0 | 4.0 | 0.00 | 0.00 | 0.00 | 62 | 1015.0 |
| 20260901185210 | 90 | 200 | 4.0 | 4.0 | 0.00 | 0.00 | 0.00 | 63 | 1015.0 |
| 20260901184709 | 89 | 279 | 1.0 | 4.0 | 0.00 | 0.00 | 0.00 | 64 | 1015.0 |
| 20260901184209 | 89 | 141 | 4.0 | 4.0 | 0.00 | 0.00 | 0.00 | 63 | 1015.0 |
| 20260901183709 | 88 | 213 | 2.0 | 6.0 | 0.00 | 0.00 | 0.00 | 64 | 1015.0 |
| 20260901183209 | 88 | 218 | 6.0 | 6.0 | 0.00 | 0.00 | 0.00 | 63 | 1015.0 |
| 20260901182710 | 88 | 203 | 3.0 | 5.0 | 0.00 | 0.00 | 0.00 | 64 | 1016.0 |
| 20260901182209 | 88 | 175 | 2.0 | 5.0 | 0.00 | 0.00 | 0.00 | 65 | 1016.0 |
| 20260901181714 | 88 | 216 | 2.0 | 3.0 | 0.00 | 0.00 | 0.00 | 66 | 1015.0 |
| 20260901181209 | 87 | 126 | 3.0 | 4.0 | 0.00 | 0.00 | 0.00 | 66 | 1015.0 |
| 20260901180710 | 87 | 117 | 2.0 | 6.0 | 0.00 | 0.00 | 0.00 | 65 | 1015.0 |
| 20260901180209 | 87 | 185 | 2.0 | 6.0 | 0.00 | 0.00 | 0.00 | 67 | 1015.0 |
| 20260901175710 | 87 | 237 | 6.0 | 7.0 | 0.00 | 0.00 | 0.00 | 66 | 1015.0 |
| 20260901175210 | 87 | 201 | 3.0 | 7.0 | 0.00 | 0.00 | 0.00 | 68 | 1015.0 |
| 20260901174709 | 87 | 236 | 2.0 | 6.0 | 0.00 | 0.00 | 0.00 | 67 | 1015.0 |
| 20260901174211 | 87 | 176 | 3.0 | 4.0 | 0.00 | 0.00 | 0.00 | 69 | 1015.0 |
| 20260901173710 | 87 | 181 | 1.0 | 4.0 | 0.00 | 0.00 | 0.00 | 69 | 1015.0 |
| 20260901173209 | 87 | 160 | 2.0 | 6.0 | 0.00 | 0.00 | 0.00 | 70 | 1015.0 |
| 20260901172710 | 86 | 184 | 1.0 | 6.0 | 0.00 | 0.00 | 0.00 | 72 | 1015.0 |
| 20260901172210 | 85 | 90 | 2.0 | 3.0 | 0.00 | 0.00 | 0.00 | 72 | 1015.0 |
| 20260901171709 | 85 | 155 | 6.0 | 6.0 | 0.00 | 0.00 | 0.00 | 72 | 1015.0 |
| 20260901171209 | 85 | 73 | 1.0 | 3.0 | 0.00 | 0.00 | 0.00 | 72 | 1015.0 |
| 20260901170711 | 84 | 46 | 0.0 | 2.0 | 0.00 | 0.00 | 0.00 | 74 | 1015.0 |
| 20260901170210 | 84 | 293 | 2.0 | 3.0 | 0.00 | 0.00 | 0.00 | 73 | 1015.0 |
| 20260901165710 | 84 | 190 | 4.0 | 4.0 | 0.00 | 0.00 | 0.00 | 74 | 1015.0 |
| 20260901165209 | 84 | 174 | 3.0 | 4.0 | 0.00 | 0.00 | 0.00 | 73 | 1015.0 |
| 20260901164711 | 84 | 167 | 2.0 | 4.0 | 0.00 | 0.00 | 0.00 | 75 | 1015.0 |
| 20260901164211 | 83 | 34 | 2.0 | 8.0 | 0.00 | 0.00 | 0.00 | 76 | 1015.0 |
| 20260901163709 | 83 | 180 | 2.0 | 4.0 | 0.00 | 0.00 | 0.00 | 74 | 1015.0 |
| 20260901163209 | 83 | 130 | 2.0 | 6.0 | 0.00 | 0.00 | 0.00 | 74 | 1015.0 |
| 20260901162711 | 82 | 110 | 1.0 | 2.0 | 0.00 | 0.00 | 0.00 | 75 | 1015.0 |
| 20260901162209 | 82 | 335 | 2.0 | 2.0 | 0.00 | 0.00 | 0.00 | 75 | 1015.0 |
| 20260901161712 | 82 | 237 | 3.0 | 3.0 | 0.00 | 0.00 | 0.00 | 77 | 1015.0 |
| 20260901161210 | 82 | 142 | 0.0 | 5.0 | 0.00 | 0.00 | 0.00 | 76 | 1015.0 |
| 20260901160709 | 81 | 192 | 0.0 | 3.0 | 0.00 | 0.00 | 0.00 | 77 | 1015.0 |
| 20260901160213 | 81 | 193 | 1.0 | 2.0 | 0.00 | 0.00 | 0.00 | 77 | 1015.0 |
| 20260901155710 | 81 | 264 | 2.0 | 3.0 | 0.00 | 0.00 | 0.00 | 77 | 1015.0 |
| 20260901155210 | 82 | 132 | 1.0 | 3.0 | 0.00 | 0.00 | 0.00 | 76 | 1015.0 |
| 20260901154710 | 82 | 153 | 0.0 | 5.0 | 0.00 | 0.00 | 0.00 | 76 | 1015.0 |
| 20260901154209 | 82 | 352 | 1.0 | 4.0 | 0.00 | 0.00 | 0.00 | 76 | 1015.0 |
| 20260901153709 | 83 | 19 | 1.0 | 4.0 | 0.00 | 0.00 | 0.00 | 74 | 1015.0 |
| 20260901153211 | 83 | 293 | 1.0 | 1.0 | 0.00 | 0.00 | 0.00 | 74 | 1015.0 |
| 20260901152709 | 83 | 76 | 2.0 | 3.0 | 0.00 | 0.00 | 0.00 | 74 | 1015.0 |
| 20260901152209 | 83 | 301 | 1.0 | 3.0 | 0.00 | 0.00 | 0.00 | 76 | 1015.0 |
| 20260901151710 | 83 | 85 | 1.0 | 2.0 | 0.00 | 0.00 | 0.00 | 76 | 1015.0 |
| 20260901151210 | 83 | 147 | 0.0 | 3.0 | 0.00 | 0.00 | 0.00 | 74 | 1015.0 |
| 20260901150710 | 83 | 284 | 1.0 | 3.0 | 0.00 | 0.00 | 0.00 | 73 | 1015.0 |
| 20260901145709 | 82 | 6 | 0.0 | 2.0 | 0.00 | 0.00 | 0.00 | 76 | 1015.0 |
| 20260901145211 | 82 | 147 | 1.0 | 3.0 | 0.00 | 0.00 | 0.00 | 75 | 1015.0 |
| 20260901144709 | 81 | 85 | 0.0 | 0.0 | 0.00 | 0.00 | 0.00 | 76 | 1015.0 |
| 20260901144209 | 81 | 37 | 0.0 | 0.0 | 0.00 | 0.00 | 0.00 | 76 | 1015.0 |
| 20260901143709 | 81 | 33 | 0.0 | 1.0 | 0.00 | 0.00 | 0.00 | 77 | 1015.0 |
| 20260901143211 | 80 | 163 | 0.0 | 0.0 | 0.00 | 0.00 | 0.00 | 78 | 1015.0 |
| 20260901142712 | 80 | 164 | 3.0 | 5.0 | 0.00 | 0.00 | 0.00 | 79 | 1015.0 |
| 20260901142210 | 79 | 160 | 1.0 | 4.0 | 0.00 | 0.00 | 0.00 | 81 | 1015.0 |
| 20260901141709 | 79 | 218 | 2.0 | 2.0 | 0.00 | 0.00 | 0.00 | 81 | 1015.0 |
| 20260901141209 | 79 | 141 | 0.0 | 2.0 | 0.00 | 0.00 | 0.00 | 82 | 1015.0 |
| 20260901140709 | 79 | 166 | 0.0 | 3.0 | 0.00 | 0.00 | 0.00 | 82 | 1015.0 |
| 20260901140210 | 78 | 260 | 4.0 | 4.0 | 0.00 | 0.00 | 0.00 | 82 | 1015.0 |
| 20260901135710 | 78 | 39 | 0.0 | 0.0 | 0.00 | 0.00 | 0.00 | 83 | 1015.0 |
| 20260901135209 | 78 | 120 | 0.0 | 1.0 | 0.00 | 0.00 | 0.00 | 84 | 1015.0 |
| 20260901134711 | 78 | 65 | 0.0 | 3.0 | 0.00 | 0.00 | 0.00 | 84 | 1015.0 |
| 20260901134210 | 78 | 54 | 1.0 | 1.0 | 0.00 | 0.00 | 0.00 | 84 | 1015.0 |
| 20260901133715 | 77 | 48 | 0.0 | 2.0 | 0.00 | 0.00 | 0.00 | 84 | 1015.0 |
| 20260901133219 | 77 | 343 | 2.0 | 3.0 | 0.00 | 0.00 | 0.00 | 85 | 1015.0 |
| 20260901132709 | 77 | 289 | 0.0 | 1.0 | 0.00 | 0.00 | 0.00 | 85 | 1015.0 |
| 20260901132212 | 77 | 20 | 0.0 | 2.0 | 0.00 | 0.00 | 0.00 | 85 | 1015.0 |
| 20260901131709 | 77 | 274 | 0.0 | 3.0 | 0.00 | 0.00 | 0.00 | 85 | 1015.0 |
| 20260901131209 | 77 | 88 | 0.0 | 2.0 | 0.00 | 0.00 | 0.00 | 86 | 1015.0 |
| 20260901130713 | 77 | 58 | 2.0 | 4.0 | 0.00 | 0.00 | 0.00 | 85 | 1015.0 |
| 20260901130210 | 77 | 355 | 1.0 | 5.0 | 0.00 | 0.00 | 0.00 | 86 | 1015.0 |
| 20260901125710 | 76 | 173 | 1.0 | 3.0 | 0.00 | 0.00 | 0.00 | 87 | 1015.0 |
| 20260901125211 | 76 | 104 | 1.0 | 1.0 | 0.00 | 0.00 | 0.00 | 88 | 1015.0 |
| 20260901124709 | 76 | 96 | 0.0 | 1.0 | 0.00 | 0.00 | 0.00 | 88 | 1015.0 |
| 20260901124209 | 76 | 343 | 2.0 | 2.0 | 0.00 | 0.00 | 0.00 | 88 | 1015.0 |
| 20260901123709 | 75 | 271 | 2.0 | 2.0 | 0.00 | 0.00 | 0.00 | 89 | 1015.0 |
| 20260901123209 | 75 | 85 | 0.0 | 5.0 | 0.00 | 0.00 | 0.00 | 89 | 1015.0 |
| 20260901122710 | 75 | 353 | 0.0 | 3.0 | 0.00 | 0.00 | 0.00 | 89 | 1015.0 |
| 20260901122210 | 75 | 313 | 0.0 | 0.0 | 0.00 | 0.00 | 0.00 | 90 | 1015.0 |
| 20260901121709 | 75 | 159 | 0.0 | 3.0 | 0.00 | 0.00 | 0.00 | 90 | 1015.0 |
| 20260901121210 | 75 | 42 | 0.0 | 1.0 | 0.00 | 0.00 | 0.00 | 90 | 1015.0 |
| 20260901120711 | 75 | 32 | 0.0 | 3.0 | 0.00 | 0.00 | 0.00 | 90 | 1015.0 |
| 20260901120213 | 75 | 78 | 1.0 | 3.0 | 0.00 | 0.00 | 0.00 | 90 | 1015.0 |
| 20260901115709 | 75 | 199 | 0.0 | 0.0 | 0.00 | 0.00 | 0.00 | 90 | 1015.0 |
| 20260901115209 | 75 | 43 | 0.0 | 0.0 | 0.00 | 0.00 | 0.00 | 90 | 1015.0 |
| 20260901114711 | 75 | 222 | 0.0 | 0.0 | 0.00 | 0.00 | 0.00 | 90 | 1015.0 |
| 20260901114211 | 75 | 350 | 0.0 | 1.0 | 0.00 | 0.00 | 0.00 | 90 | 1015.0 |
| 20260901113710 | 75 | 296 | 0.0 | 2.0 | 0.00 | 0.00 | 0.00 | 90 | 1015.0 |
| 20260901113209 | 74 | 155 | 0.0 | 2.0 | 0.00 | 0.00 | 0.00 | 89 | 1015.0 |
| 20260901112709 | 75 | 279 | 0.0 | 1.0 | 0.00 | 0.00 | 0.00 | 89 | 1015.0 |
| 20260901112209 | 74 | 85 | 0.0 | 0.0 | 0.00 | 0.00 | 0.00 | 89 | 1015.0 |
| 20260901111709 | 74 | 112 | 0.0 | 3.0 | 0.00 | 0.00 | 0.00 | 89 | 1014.0 |
| 20260901111210 | 74 | 67 | 0.0 | 2.0 | 0.00 | 0.00 | 0.00 | 89 | 1015.0 |
| 20260901110709 | 74 | 271 | 1.0 | 3.0 | 0.00 | 0.00 | 0.00 | 88 | 1014.0 |
| 20260901110209 | 74 | 125 | 0.0 | 2.0 | 0.00 | 0.00 | 0.00 | 88 | 1014.0 |
| 20260901105711 | 74 | 123 | 0.0 | 0.0 | 0.00 | 0.00 | 0.00 | 88 | 1014.0 |
| 20260901105209 | 74 | 100 | 0.0 | 0.0 | 0.00 | 0.00 | 0.00 | 87 | 1014.0 |
| 20260901104711 | 74 | 164 | 2.0 | 2.0 | 0.00 | 0.00 | 0.00 | 87 | 1014.0 |
| 20260901104210 | 74 | 120 | 0.0 | 3.0 | 0.00 | 0.00 | 0.00 | 87 | 1014.0 |
| 20260901103709 | 74 | 60 | 0.0 | 0.0 | 0.00 | 0.00 | 0.00 | 87 | 1014.0 |
| 20260901103209 | 74 | 171 | 1.0 | 3.0 | 0.00 | 0.00 | 0.00 | 87 | 1014.0 |
| 20260901102710 | 74 | 144 | 3.0 | 3.0 | 0.00 | 0.00 | 0.00 | 87 | 1014.0 |
| 20260901102210 | 74 | 146 | 0.0 | 3.0 | 0.00 | 0.00 | 0.00 | 88 | 1014.0 |
| 20260901101709 | 73 | 105 | 1.0 | 4.0 | 0.00 | 0.00 | 0.00 | 89 | 1014.0 |
| 20260901101209 | 73 | 137 | 1.0 | 1.0 | 0.00 | 0.00 | 0.00 | 89 | 1014.0 |
| 20260901100709 | 73 | 176 | 0.0 | 2.0 | 0.00 | 0.00 | 0.00 | 90 | 1014.0 |
| 20260901100209 | 73 | 144 | 0.0 | 0.0 | 0.00 | 0.00 | 0.00 | 90 | 1014.0 |
| 20260901095711 | 74 | 148 | 0.0 | 0.0 | 0.00 | 0.00 | 0.00 | 89 | 1014.0 |
| 20260901095210 | 73 | 156 | 0.0 | 0.0 | 0.00 | 0.00 | 0.00 | 89 | 1014.0 |
| 20260901094710 | 73 | 147 | 0.0 | 0.0 | 0.00 | 0.00 | 0.00 | 89 | 1014.0 |
| 20260901094209 | 74 | 198 | 0.0 | 0.0 | 0.00 | 0.00 | 0.00 | 88 | 1014.0 |
| 20260901093709 | 73 | 109 | 0.0 | 0.0 | 0.00 | 0.00 | 0.00 | 88 | 1014.0 |
| 20260901093209 | 73 | 216 | 0.0 | 0.0 | 0.00 | 0.00 | 0.00 | 88 | 1014.0 |
| 20260901092711 | 74 | 120 | 0.0 | 0.0 | 0.00 | 0.00 | 0.00 | 88 | 1014.0 |
| 20260901092209 | 74 | 152 | 0.0 | 0.0 | 0.00 | 0.00 | 0.00 | 88 | 1014.0 |
| 20260901091709 | 74 | 242 | 0.0 | 1.0 | 0.00 | 0.00 | 0.00 | 88 | 1014.0 |
| 20260901091209 | 74 | 136 | 0.0 | 0.0 | 0.00 | 0.00 | 0.00 | 87 | 1014.0 |
| 20260901090711 | 74 | 65 | 0.0 | 0.0 | 0.00 | 0.00 | 0.00 | 87 | 1014.0 |
| 20260901090210 | 74 | 135 | 0.0 | 0.0 | 0.00 | 0.00 | 0.00 | 87 | 1014.0 |
| 20260901085710 | 74 | 289 | 0.0 | 0.0 | 0.00 | 0.00 | 0.00 | 87 | 1014.0 |
| 20260901085209 | 74 | 176 | 0.0 | 0.0 | 0.00 | 0.00 | 0.00 | 87 | 1014.0 |
| 20260901084709 | 74 | 59 | 0.0 | 0.0 | 0.00 | 0.00 | 0.00 | 87 | 1014.0 |
| 20260901084209 | 74 | 80 | 0.0 | 0.0 | 0.00 | 0.00 | 0.00 | 87 | 1014.0 |
| 20260901083709 | 74 | 109 | 1.0 | 3.0 | 0.00 | 0.00 | 0.00 | 87 | 1014.0 |
| 20260901083209 | 74 | 130 | 2.0 | 2.0 | 0.00 | 0.00 | 0.00 | 87 | 1014.0 |
| 20260901082709 | 74 | 224 | 2.0 | 2.0 | 0.00 | 0.00 | 0.00 | 87 | 1014.0 |
| 20260901082209 | 74 | 129 | 0.0 | 1.0 | 0.00 | 0.00 | 0.00 | 88 | 1014.0 |
| 20260901081712 | 73 | 326 | 0.0 | 2.0 | 0.00 | 0.00 | 0.00 | 88 | 1014.0 |
| 20260901081210 | 73 | 250 | 0.0 | 1.0 | 0.00 | 0.00 | 0.00 | 89 | 1014.0 |
| 20260901080709 | 73 | 285 | 0.0 | 0.0 | 0.00 | 0.00 | 0.00 | 91 | 1014.0 |
| 20260901080209 | 72 | 85 | 0.0 | 3.0 | 0.00 | 0.00 | 0.00 | 92 | 1014.0 |
| 20260901075709 | 72 | 201 | 0.0 | 0.0 | 0.00 | 0.00 | 0.00 | 93 | 1014.0 |
| 20260901075209 | 72 | 77 | 0.0 | 0.0 | 0.00 | 0.00 | 0.00 | 94 | 1014.0 |
| 20260901074710 | 71 | 275 | 0.0 | 0.0 | 0.00 | 0.00 | 0.00 | 95 | 1014.0 |
| 20260901074211 | 71 | 273 | 0.0 | 0.0 | 0.00 | 0.00 | 0.00 | 96 | 1014.0 |
| 20260901073709 | 71 | 153 | 0.0 | 0.0 | 0.00 | 0.00 | 0.00 | 96 | 1014.0 |
| 20260901073211 | 71 | 131 | 0.0 | 0.0 | 0.00 | 0.00 | 0.00 | 96 | 1014.0 |
| 20260901072710 | 71 | 87 | 0.0 | 0.0 | 0.00 | 0.00 | 0.00 | 96 | 1014.0 |
| 20260901072210 | 71 | 125 | 0.0 | 0.0 | 0.00 | 0.00 | 0.00 | 97 | 1014.0 |
| 20260901071710 | 71 | 172 | 0.0 | 0.0 | 0.00 | 0.00 | 0.00 | 97 | 1014.0 |
| 20260901071209 | 71 | 345 | 0.0 | 0.0 | 0.00 | 0.00 | 0.00 | 97 | 1014.0 |
| 20260901070710 | 71 | 132 | 0.0 | 0.0 | 0.00 | 0.00 | 0.00 | 97 | 1014.0 |
| 20260901070210 | 71 | 202 | 0.0 | 0.0 | 0.00 | 0.00 | 0.00 | 97 | 1014.0 |
| 20260901065710 | 71 | 212 | 0.0 | 0.0 | 0.00 | 0.00 | 0.00 | 97 | 1014.0 |
| 20260901065211 | 71 | 163 | 0.0 | 0.0 | 0.00 | 0.00 | 0.00 | 97 | 1014.0 |
| 20260901064709 | 71 | 142 | 0.0 | 0.0 | 0.00 | 0.00 | 0.00 | 97 | 1015.0 |
| 20260901064209 | 71 | 122 | 0.0 | 0.0 | 0.00 | 0.00 | 0.00 | 97 | 1015.0 |
| 20260901063709 | 70 | 126 | 0.0 | 0.0 | 0.00 | 0.00 | 0.00 | 97 | 1015.0 |
| 20260901063209 | 70 | 161 | 0.0 | 0.0 | 0.00 | 0.00 | 0.00 | 97 | 1015.0 |
| 20260901062712 | 70 | 156 | 0.0 | 0.0 | 0.00 | 0.00 | 0.00 | 97 | 1015.0 |
| 20260901062210 | 70 | 127 | 0.0 | 0.0 | 0.00 | 0.00 | 0.00 | 97 | 1015.0 |
| 20260901061709 | 70 | 129 | 0.0 | 0.0 | 0.00 | 0.00 | 0.00 | 97 | 1015.0 |
| 20260901061209 | 70 | 121 | 0.0 | 0.0 | 0.00 | 0.00 | 0.00 | 97 | 1015.0 |
| 20260901060709 | 70 | 150 | 0.0 | 0.0 | 0.00 | 0.00 | 0.00 | 97 | 1015.0 |
| 20260901060210 | 70 | 53 | 0.0 | 0.0 | 0.00 | 0.00 | 0.00 | 97 | 1015.0 |
| 20260901055709 | 71 | 132 | 0.0 | 0.0 | 0.00 | 0.00 | 0.00 | 97 | 1015.0 |
| 20260901055210 | 70 | 123 | 0.0 | 0.0 | 0.00 | 0.00 | 0.00 | 97 | 1015.0 |
| 20260901054710 | 71 | 140 | 0.0 | 0.0 | 0.00 | 0.00 | 0.00 | 97 | 1015.0 |
| 20260901054210 | 71 | 159 | 0.0 | 0.0 | 0.00 | 0.00 | 0.00 | 97 | 1015.0 |
| 20260901053709 | 70 | 129 | 0.0 | 0.0 | 0.00 | 0.00 | 0.00 | 97 | 1015.0 |
| 20260901053210 | 70 | 119 | 0.0 | 0.0 | 0.00 | 0.00 | 0.00 | 97 | 1016.0 |
| 20260901052710 | 71 | 321 | 0.0 | 0.0 | 0.00 | 0.00 | 0.00 | 97 | 1016.0 |
| 20260901052209 | 71 | 117 | 0.0 | 0.0 | 0.00 | 0.00 | 0.00 | 97 | 1016.0 |
| 20260901051709 | 70 | 127 | 0.0 | 0.0 | 0.00 | 0.00 | 0.00 | 97 | 1016.0 |
| 20260901051210 | 70 | 157 | 0.0 | 0.0 | 0.00 | 0.00 | 0.00 | 97 | 1016.0 |
| 20260901050711 | 70 | 108 | 0.0 | 0.0 | 0.00 | 0.00 | 0.00 | 97 | 1016.0 |
| 20260901050209 | 70 | 91 | 0.0 | 0.0 | 0.00 | 0.00 | 0.00 | 97 | 1016.0 |
| 20260901045709 | 70 | 96 | 0.0 | 0.0 | 0.00 | 0.00 | 0.00 | 97 | 1016.0 |
| 20260901045210 | 70 | 147 | 0.0 | 0.0 | 0.00 | 0.00 | 0.00 | 97 | 1016.0 |
| 20260901044709 | 70 | 130 | 0.0 | 0.0 | 0.00 | 0.00 | 0.00 | 97 | 1016.0 |
| 20260901044210 | 70 | 123 | 0.0 | 0.0 | 0.01 | 0.00 | 0.00 | 97 | 1016.0 |
| 20260901043709 | 70 | 110 | 0.0 | 0.0 | 0.01 | 0.00 | 0.00 | 97 | 1016.0 |
| 20260901043210 | 70 | 106 | 0.0 | 0.0 | 0.01 | 0.00 | 0.00 | 97 | 1016.0 |
| 20260901042710 | 70 | 109 | 0.0 | 0.0 | 0.01 | 0.00 | 0.00 | 97 | 1017.0 |
| 20260901042210 | 70 | 123 | 0.0 | 0.0 | 0.01 | 0.00 | 0.00 | 97 | 1017.0 |
| 20260901041709 | 70 | 153 | 0.0 | 0.0 | 0.01 | 0.00 | 0.00 | 97 | 1017.0 |
| 20260901041209 | 70 | 100 | 0.0 | 0.0 | 0.01 | 0.00 | 0.00 | 97 | 1017.0 |
| 20260901040710 | 70 | 96 | 0.0 | 0.0 | 0.01 | 0.00 | 0.00 | 97 | 1017.0 |
| 20260901040209 | 70 | 128 | 0.0 | 0.0 | 0.01 | 0.00 | 0.64 | 97 | 1017.0 |
| 20260901035709 | 70 | 172 | 0.0 | 0.0 | 0.01 | 0.00 | 0.64 | 97 | 1017.0 |
| 20260901035210 | 70 | 123 | 0.0 | 0.0 | 0.01 | 0.00 | 0.64 | 97 | 1017.0 |
| 20260901034710 | 70 | 124 | 0.0 | 0.0 | 0.01 | 0.00 | 0.64 | 97 | 1017.0 |
| 20260901034210 | 70 | 242 | 0.0 | 0.0 | 0.00 | 0.00 | 0.63 | 97 | 1017.0 |
| 20260901033709 | 70 | 123 | 0.0 | 0.0 | 0.00 | 0.00 | 0.63 | 97 | 1017.0 |
| 20260901033210 | 70 | 98 | 0.0 | 0.0 | 0.00 | 0.00 | 0.63 | 97 | 1017.0 |
| 20260901032709 | 70 | 111 | 0.0 | 0.0 | 0.00 | 0.00 | 0.63 | 97 | 1017.0 |
| 20260901032209 | 70 | 129 | 0.0 | 0.0 | 0.00 | 0.00 | 0.63 | 97 | 1017.0 |
| 20260901031710 | 70 | 119 | 0.0 | 0.0 | 0.00 | 0.00 | 0.63 | 96 | 1017.0 |
| 20260901031210 | 70 | 126 | 0.0 | 0.0 | 0.00 | 0.00 | 0.63 | 96 | 1017.0 |
| 20260901030710 | 70 | 104 | 0.0 | 0.0 | 0.00 | 0.00 | 0.63 | 97 | 1017.0 |
| 20260901030209 | 70 | 75 | 0.0 | 0.0 | 0.00 | 0.00 | 0.63 | 96 | 1017.0 |
| 20260901025710 | 70 | 143 | 0.0 | 0.0 | 0.00 | 0.00 | 0.63 | 96 | 1017.0 |
| 20260901025210 | 70 | 128 | 0.0 | 0.0 | 0.00 | 0.00 | 0.63 | 96 | 1017.0 |
| 20260901024711 | 70 | 118 | 0.0 | 0.0 | 0.00 | 0.00 | 0.63 | 96 | 1017.0 |
| 20260901024210 | 71 | 115 | 0.0 | 0.0 | 0.00 | 0.00 | 0.63 | 96 | 1017.0 |
| 20260901023710 | 71 | 80 | 0.0 | 0.0 | 0.00 | 0.00 | 0.63 | 96 | 1017.0 |
| 20260901023210 | 71 | 114 | 0.0 | 0.0 | 0.00 | 0.00 | 0.63 | 96 | 1017.0 |
| 20260901022710 | 71 | 108 | 0.0 | 0.0 | 0.00 | 0.00 | 0.63 | 96 | 1017.0 |
| 20260901022209 | 71 | 104 | 0.0 | 0.0 | 0.00 | 0.00 | 0.63 | 96 | 1017.0 |
| 20260901021709 | 71 | 114 | 0.0 | 0.0 | 0.00 | 0.00 | 0.63 | 96 | 1017.0 |
| 20260901021209 | 71 | 106 | 0.0 | 0.0 | 0.00 | 0.00 | 0.63 | 96 | 1017.0 |
| 20260901020711 | 71 | 137 | 0.0 | 0.0 | 0.00 | 0.00 | 0.63 | 96 | 1017.0 |
| 20260901020210 | 71 | 144 | 0.0 | 0.0 | 0.00 | 0.00 | 0.63 | 96 | 1017.0 |
| 20260901015709 | 71 | 132 | 0.0 | 0.0 | 0.00 | 0.00 | 0.63 | 96 | 1017.0 |
| 20260901015209 | 71 | 113 | 0.0 | 0.0 | 0.00 | 0.00 | 0.63 | 96 | 1017.0 |
| 20260901014710 | 71 | 143 | 0.0 | 0.0 | 0.00 | 0.00 | 0.63 | 96 | 1017.0 |
| 20260901014209 | 72 | 129 | 0.0 | 0.0 | 0.00 | 0.00 | 0.63 | 96 | 1017.0 |
| 20260901013710 | 72 | 138 | 0.0 | 0.0 | 0.00 | 0.00 | 0.63 | 96 | 1017.0 |
| 20260901013209 | 72 | 138 | 0.0 | 0.0 | 0.00 | 0.00 | 0.63 | 96 | 1018.0 |
| 20260901012711 | 72 | 116 | 0.0 | 0.0 | 0.00 | 0.00 | 0.63 | 96 | 1018.0 |
| 20260901012212 | 72 | 102 | 0.0 | 0.0 | 0.00 | 0.00 | 0.63 | 96 | 1018.0 |
| 20260901011709 | 72 | 119 | 0.0 | 0.0 | 0.00 | 0.00 | 0.63 | 96 | 1018.0 |
| 20260901011210 | 72 | 82 | 0.0 | 0.0 | 0.00 | 0.00 | 0.63 | 95 | 1018.0 |
| 20260901010709 | 72 | 79 | 0.0 | 0.0 | 0.00 | 0.00 | 0.63 | 96 | 1018.0 |
| 20260901010209 | 72 | 132 | 0.0 | 0.0 | 0.00 | 0.00 | 0.63 | 96 | 1018.0 |
| 20260901005709 | 72 | 55 | 0.0 | 0.0 | 0.00 | 0.00 | 0.63 | 96 | 1017.0 |
| 20260901005211 | 72 | 135 | 0.0 | 0.0 | 0.00 | 0.00 | 0.63 | 95 | 1017.0 |
| 20260901004711 | 72 | 184 | 0.0 | 0.0 | 0.00 | 0.00 | 0.63 | 95 | 1017.0 |
| 20260901004214 | 72 | 201 | 0.0 | 0.0 | 0.00 | 0.00 | 0.63 | 95 | 1017.0 |
| 20260901003710 | 72 | 143 | 0.0 | 0.0 | 0.00 | 0.00 | 0.63 | 95 | 1017.0 |
| 20260901003209 | 72 | 62 | 0.0 | 0.0 | 0.00 | 0.00 | 0.63 | 95 | 1017.0 |
| 20260901002709 | 72 | 242 | 0.0 | 0.0 | 0.00 | 0.00 | 0.63 | 95 | 1017.0 |
| 20260901002210 | 72 | 142 | 0.0 | 0.0 | 0.00 | 0.00 | 0.63 | 95 | 1017.0 |
| 20260901001710 | 72 | 176 | 0.0 | 0.0 | 0.00 | 0.00 | 0.63 | 95 | 1017.0 |
| 20260901001210 | 72 | 104 | 0.0 | 0.0 | 0.00 | 0.00 | 0.63 | 95 | 1017.0 |
| 20260901000710 | 72 | 77 | 0.0 | 0.0 | 0.00 | 0.00 | 0.63 | 95 | 1017.0 |
| 20260901000211 | 72 | 152 | 0.0 | 0.0 | 0.00 | 0.00 | 0.63 | 95 | 1017.0 |
| 20260831235710 | 72 | 140 | 0.0 | 0.0 | 0.00 | 0.00 | 0.63 | 95 | 1017.0 |
| 20260831235209 | 73 | 162 | 0.0 | 0.0 | 0.00 | 0.00 | 0.63 | 95 | 1017.0 |
| 20260831234709 | 73 | 152 | 0.0 | 0.0 | 0.00 | 0.00 | 0.63 | 95 | 1017.0 |
| 20260831234209 | 73 | 108 | 0.0 | 2.0 | 0.00 | 0.00 | 0.63 | 95 | 1017.0 |
| 20260831233709 | 73 | 202 | 2.0 | 4.0 | 0.00 | 0.00 | 0.63 | 95 | 1017.0 |
| 20260831233210 | 73 | 107 | 0.0 | 0.0 | 0.00 | 0.00 | 0.63 | 95 | 1017.0 |
| 20260831232709 | 73 | 27 | 0.0 | 3.0 | 0.00 | 0.00 | 0.63 | 94 | 1017.0 |
| 20260831232210 | 73 | 258 | 0.0 | 3.0 | 0.00 | 0.00 | 0.63 | 94 | 1017.0 |
| 20260831231713 | 73 | 240 | 2.0 | 3.0 | 0.00 | 0.00 | 0.63 | 94 | 1017.0 |
| 20260831231209 | 74 | 120 | 0.0 | 0.0 | 0.00 | 0.00 | 0.63 | 94 | 1017.0 |
| 20260831230710 | 74 | 178 | 0.0 | 1.0 | 0.00 | 0.00 | 0.63 | 93 | 1017.0 |
| 20260831230209 | 74 | 104 | 0.0 | 0.0 | 0.00 | 0.00 | 0.63 | 93 | 1017.0 |
| 20260831225710 | 74 | 77 | 0.0 | 0.0 | 0.00 | 0.00 | 0.63 | 93 | 1017.0 |
| 20260831225209 | 74 | 149 | 0.0 | 0.0 | 0.00 | 0.00 | 0.63 | 92 | 1017.0 |
| 20260831224710 | 74 | 194 | 0.0 | 1.0 | 0.00 | 0.00 | 0.63 | 92 | 1017.0 |
| 20260831224211 | 74 | 113 | 0.0 | 1.0 | 0.00 | 0.00 | 0.63 | 92 | 1017.0 |
| 20260831223711 | 74 | 143 | 0.0 | 0.0 | 0.00 | 0.00 | 0.63 | 92 | 1017.0 |
| 20260831223210 | 74 | 118 | 0.0 | 0.0 | 0.00 | 0.00 | 0.63 | 92 | 1017.0 |
| 20260831222709 | 74 | 320 | 0.0 | 2.0 | 0.00 | 0.00 | 0.63 | 92 | 1017.0 |
| 20260831222210 | 74 | 231 | 0.0 | 0.0 | 0.00 | 0.00 | 0.63 | 92 | 1017.0 |
| 20260831221709 | 74 | 163 | 3.0 | 3.0 | 0.00 | 0.00 | 0.63 | 92 | 1017.0 |
| 20260831221209 | 74 | 58 | 0.0 | 2.0 | 0.00 | 0.00 | 0.63 | 92 | 1017.0 |
| 20260831220710 | 74 | 139 | 1.0 | 2.0 | 0.00 | 0.00 | 0.63 | 93 | 1018.0 |
| 20260831220209 | 74 | 257 | 0.0 | 2.0 | 0.00 | 0.00 | 0.63 | 93 | 1018.0 |
| 20260831215710 | 74 | 289 | 1.0 | 2.0 | 0.00 | 0.00 | 0.63 | 93 | 1018.0 |
| 20260831215209 | 74 | 230 | 0.0 | 3.0 | 0.00 | 0.00 | 0.63 | 94 | 1018.0 |
| 20260831214711 | 74 | 127 | 2.0 | 4.0 | 0.00 | 0.00 | 0.63 | 94 | 1018.0 |
| 20260831214209 | 74 | 213 | 2.0 | 4.0 | 0.00 | 0.00 | 0.63 | 94 | 1018.0 |
| 20260831213709 | 74 | 206 | 2.0 | 4.0 | 0.00 | 0.00 | 0.63 | 94 | 1018.0 |
| 20260831213210 | 74 | 269 | 1.0 | 4.0 | 0.00 | 0.00 | 0.63 | 94 | 1018.0 |
| 20260831212711 | 74 | 130 | 0.0 | 0.0 | 0.00 | 0.00 | 0.63 | 94 | 1018.0 |
| 20260831212210 | 74 | 89 | 3.0 | 4.0 | 0.00 | 0.00 | 0.63 | 95 | 1018.0 |
| 20260831211709 | 74 | 254 | 0.0 | 2.0 | 0.00 | 0.00 | 0.63 | 95 | 1018.0 |
| 20260831211209 | 74 | 100 | 4.0 | 4.0 | 0.00 | 0.00 | 0.63 | 95 | 1018.0 |
| 20260831210712 | 73 | 220 | 3.0 | 4.0 | 0.00 | 0.00 | 0.63 | 95 | 1018.0 |
| 20260831210210 | 73 | 357 | 3.0 | 3.0 | 0.00 | 0.00 | 0.63 | 95 | 1017.0 |
| 20260831205709 | 73 | 181 | 2.0 | 3.0 | 0.00 | 0.00 | 0.63 | 96 | 1017.0 |